Regional Weather Roundup
Issued by NWS Green Bay, WI

Current Version | Previous Version | Text Only | Print | Product List | Glossary On
Versions: 1 2 3 4 5 6 7 8 9 10 11 12 13 14 15 16 17 18 19 20 21 22 23 24 25 26 27 28 29 30 31 32 33 34 35 36 37 38 39 40 41 42 43 44 45 46 47 48 49 50
000
ASUS43 KGRB 271311
RWRGRB

NORTH-CENTRAL AND NORTHEAST WISCONSIN REGIONAL WEATHER ROUNDUP
NATIONAL WEATHER SERVICE GREEN BAY WI
800 AM CDT FRI MAY 27 2022

WIZ005-009-010>012-018-019-271400-
NORTH CENTRAL WISCONSIN

CITY           SKY/WX    TMP DP  RH WIND       PRES   REMARKS
IRONWOOD       SUNNY     52  46  80 W5        29.92F
MANITOWISH WTR SUNNY     52  47  83 NW9       29.91S
ARBOR VITAE    SUNNY     52  24  32 N6        29.91S
EAGLE RIVER    CLOUDY    50  49  96 N6        29.90S
LAND O LAKES   CLOUDY    51  47  84 N7        29.92S
RHINELANDER    CLOUDY    51  46  83 VRB5      29.91S
PHILLIPS       SUNNY     50  48  91 N5        29.92S
ANTIGO         CLOUDY    51  46  84 N9        29.90S
TOMAHAWK       SUNNY     51  48  91 NW6       29.91F
MERRILL        CLOUDY    49  48  95 N6        29.90S
$$

WIZ013-073-271400-
NORTHEAST WISCONSIN

CITY           SKY/WX    TMP DP  RH WIND       PRES   REMARKS
IRON MOUNTAIN  CLOUDY    52  48  86 N9        29.87R
MARINETTE      CLOUDY    55  49  80 N9        29.87R
OCONTO         CLOUDY    54  49  85 N9        29.86S
$$

WIZ017-030-035>037-045-271400-
CENTRAL WISCONSIN

CITY           SKY/WX    TMP DP  RH WIND       PRES   REMARKS
MEDFORD        SUNNY     50  50  98 N7        29.91S
WAUSAU         PTSUNNY   56  46  69 NW10      29.89S
MOSINEE        PTSUNNY   54  45  71 N7        29.91S
MARSHFIELD     MOSUNNY   54  47  77 N9        29.91R
WISC RAPIDS    CLOUDY    52  47  83 N8        29.90S
STEVENS POINT  CLOUDY    53  45  75 N9        29.90S
WAUPACA        CLOUDY    55  49  82 N6        29.89R
SHAWANO        CLOUDY    55  51  86 NE10      29.88S
CLINTONVILLE   NOT AVBL
WAUTOMA        CLOUDY    54  50  86 N6        29.88R
$$

WIZ038-039-048-051-271400-
FOX VALLEY

CITY           SKY/WX    TMP DP  RH WIND       PRES   REMARKS
NWS GREEN BAY  CLOUDY    57  49  74 N17G24    29.85S
APPLETON       CLOUDY    54  48  82 N15       29.84S
OSHKOSH        CLOUDY    54  49  83 N12       29.85R
FOND DU LAC    CLOUDY    55  49  80 N12       29.85R
$$

WIZ022-050-052-271400-
EAST CENTRAL WISCONSIN

CITY           SKY/WX    TMP DP  RH WIND       PRES   REMARKS
EPHRAIM        CLOUDY    52  48  88 N12G17    29.84S
WASHINGTON ISL CLOUDY    51  51 100 N9        29.84R
STURGEON BAY   CLOUDY    53  50  89 N14       29.85S
MANITOWOC      CLOUDY    54  54 100 N13G20    29.84S
SHEBOYGAN      CLOUDY    55  51  86 N10G20    29.83R
$$

LMZ563-521-522-541>543-271400-
LAKESHORE

STATION/POSITION TIME  TEMP    WIND        PRES    VSBY  WAVE
                       AIR SEA DIR/SP/G                  HT/PER
                 (UTC) (F)     (DEG/KT/KT) (MB)    (MI)  (FT/S)
SHEBOYGAN LKSHOR 1300   50     360/ 12/ 13 1010.5R
KEWAUNEE LKSHORE 1230   54     350/  5/ 10 1008.8R
NORTHPORT PIER   1240   50     290/ 10/ 13 1011.5R
N MID LAKE BUOY  1250   42 38  330/  6/  6 1010.7R         0
SISTER BAY LKSHO 1256   52      30/ 10/ 12   N/A
GREEN BAY WEST   1230   55     360/ 13/ 17 1009.9R
MENOMINEE LKSHOR 1230   53 61  340/  9/ 12 1009.9R
$$



USA.gov is the U.S. government's official web portal to all federal, state and local government web resources and services.